Location: Unspecified
(41.5000°N, 0.0000°E)
Time: 08:25:46
(UTC+00:00)

deb Explorer IX - Pass Details

Date: 03 October 2020
Orbit: 537 x 1106 km, 38.8° (Epoch: 19 October)

Event Time Altitude Azimuth Distance (km) Brightness Sun altitude
Rises 18:26:29 0° 271° (W) 3,108 ? -9.9°
Reaches altitude 10° 18:29:04 10° 267° (W) 2,097 ? -10.4°
Maximum altitude 18:33:46 56° 189° (S) 719 ? -11.3°
Enters shadow 18:37:01 16° 114° (ESE) 1,522 ? -11.9°
